TimeHST,TemperatureF,Dew PointF,Humidity,Sea Level PressureIn,VisibilityMPH,Wind Direction,Wind SpeedMPH,Gust SpeedMPH,PrecipitationIn,Events,Conditions,WindDirDegrees,DateUTC
12:20 AM,69.8,66.2,88,30.07,10.0,WSW,5.8,-,0.00,,Overcast,250,2011-11-12 10:20:00
12:53 AM,69.1,66.0,90,30.06,10.0,SW,6.9,-,0.01,Rain,Light Rain,220,2011-11-12 10:53:00
1:53 AM,69.1,66.0,90,30.06,6.0,WSW,4.6,-,0.10,Rain,Light Rain,250,2011-11-12 11:53:00
2:00 AM,69.8,66.2,88,30.06,9.0,West,8.1,-,0.01,Rain,Light Rain,260,2011-11-12 12:00:00
2:37 AM,69.8,66.2,88,30.05,4.0,NNW,3.5,-,0.01,Rain,Rain,330,2011-11-12 12:37:00
2:53 AM,69.1,66.0,90,30.04,8.0,West,5.8,-,0.03,Rain,Light Rain,260,2011-11-12 12:53:00
3:10 AM,69.8,66.2,88,30.05,2.5,West,4.6,-,0.03,Rain,Heavy Rain,270,2011-11-12 13:10:00
3:23 AM,69.8,66.2,88,30.05,5.0,West,8.1,-,0.10,Rain,Light Rain,260,2011-11-12 13:23:00
3:42 AM,69.8,66.2,88,30.05,1.8,West,4.6,-,0.15,Rain,Rain,270,2011-11-12 13:42:00
3:53 AM,69.1,66.0,90,30.04,3.0,SW,8.1,-,0.24,Rain,Rain,230,2011-11-12 13:53:00
4:15 AM,69.8,66.2,88,30.04,10.0,SW,8.1,-,0.02,Rain,Light Rain,220,2011-11-12 14:15:00
4:46 AM,69.8,66.2,88,30.05,10.0,WNW,3.5,-,0.02,,Overcast,290,2011-11-12 14:46:00
4:53 AM,69.1,66.0,90,30.05,10.0,NNW,3.5,-,0.02,,Overcast,340,2011-11-12 14:53:00
5:19 AM,69.8,66.2,88,30.06,5.0,Variable,6.9,18.4,0.00,Rain,Heavy Rain,0,2011-11-12 15:19:00
5:39 AM,69.8,66.2,88,30.06,9.0,SW,6.9,-,0.04,Rain,Light Rain,220,2011-11-12 15:39:00
5:53 AM,69.1,66.0,90,30.06,10.0,WSW,6.9,-,0.05,,Overcast,240,2011-11-12 15:53:00
6:37 AM,69.8,66.2,88,30.09,4.0,NNW,9.2,-,0.00,Rain,Light Rain,330,2011-11-12 16:37:00
6:43 AM,69.8,66.2,88,30.09,4.0,NNW,9.2,-,0.01,Rain,Light Rain,330,2011-11-12 16:43:00
6:53 AM,69.1,66.0,90,30.09,3.0,WNW,10.4,-,0.03,Rain,Rain,290,2011-11-12 16:53:00
7:05 AM,69.8,66.2,88,30.10,2.5,WNW,8.1,-,0.02,Rain,Light Rain,300,2011-11-12 17:05:00
7:13 AM,69.8,66.2,88,30.10,3.0,WNW,8.1,-,0.07,Rain,Heavy Rain,290,2011-11-12 17:13:00
7:53 AM,69.1,66.9,93,30.11,3.0,West,6.9,-,0.12,Rain,Light Rain,260,2011-11-12 17:53:00
8:21 AM,69.8,66.2,88,30.12,2.0,WSW,6.9,-,0.02,Rain,Rain,250,2011-11-12 18:21:00
8:25 AM,69.8,66.2,88,30.12,3.0,WNW,5.8,-,0.03,Rain,Light Rain,290,2011-11-12 18:25:00
8:42 AM,69.8,66.2,88,30.13,2.5,Variable,3.5,-,0.05,Rain,Rain,0,2011-11-12 18:42:00
8:53 AM,70.0,66.9,90,30.12,2.5,WSW,8.1,-,0.09,Rain,Rain,240,2011-11-12 18:53:00
9:02 AM,69.8,66.2,88,30.12,3.0,SW,6.9,-,0.01,Rain,Rain,230,2011-11-12 19:02:00
9:07 AM,71.6,66.2,83,30.12,3.0,WSW,8.1,-,0.03,Rain,Rain,240,2011-11-12 19:07:00
9:10 AM,71.6,66.2,83,30.12,7.0,WSW,6.9,-,0.03,Rain,Light Rain,250,2011-11-12 19:10:00
9:27 AM,71.6,68.0,88,30.12,1.5,WNW,9.2,-,0.04,Rain,Heavy Rain,290,2011-11-12 19:27:00
9:38 AM,69.8,66.2,88,30.12,2.0,West,12.7,-,0.19,Rain,Heavy Rain,270,2011-11-12 19:38:00
9:44 AM,69.8,66.2,88,30.13,3.0,North,5.8,-,0.26,Rain,Heavy Rain,350,2011-11-12 19:44:00
9:53 AM,70.0,66.9,90,30.13,3.0,West,11.5,-,0.31,Rain,Light Rain,280,2011-11-12 19:53:00
10:53 AM,72.0,68.0,87,30.12,8.0,West,8.1,-,0.06,,Overcast,270,2011-11-12 20:53:00
11:53 AM,71.1,68.0,90,30.11,1.5,SW,4.6,-,0.13,Rain,Heavy Rain,220,2011-11-12 21:53:00
12:10 PM,71.6,66.2,83,30.10,7.0,SW,8.1,-,0.31,Rain,Light Rain,230,2011-11-12 22:10:00
12:17 PM,71.6,66.2,83,30.09,10.0,WSW,5.8,-,0.31,,Overcast,250,2011-11-12 22:17:00
12:27 PM,71.6,68.0,88,30.09,1.8,WSW,9.2,-,0.34,Rain,Heavy Rain,250,2011-11-12 22:27:00
12:30 PM,71.6,68.0,88,30.09,2.0,WSW,9.2,-,0.35,Rain,Light Rain,250,2011-11-12 22:30:00
12:38 PM,71.6,68.0,88,30.08,10.0,WSW,6.9,-,0.36,Rain,Light Rain,250,2011-11-12 22:38:00
12:53 PM,72.0,68.0,87,30.07,10.0,West,8.1,-,0.36,,Overcast,270,2011-11-12 22:53:00
1:53 PM,73.0,68.0,84,30.06,10.0,West,6.9,-,0.00,,Overcast,260,2011-11-12 23:53:00
2:53 PM,73.9,66.9,79,30.05,10.0,WNW,4.6,-,N/A,,Mostly Cloudy,290,2011-11-13 00:53:00
3:53 PM,73.0,64.9,76,30.05,8.0,West,3.5,-,0.01,Rain,Light Rain,270,2011-11-13 01:53:00
4:27 PM,71.6,64.4,78,30.06,10.0,SW,4.6,-,0.00,Rain,Light Rain,230,2011-11-13 02:27:00
4:40 PM,69.8,64.4,83,30.06,8.0,West,9.2,-,0.00,Rain,Light Rain,260,2011-11-13 02:40:00
4:53 PM,69.1,64.9,87,30.06,8.0,WSW,9.2,-,0.00,Rain,Light Rain,240,2011-11-13 02:53:00
5:53 PM,69.1,64.9,87,30.07,10.0,SW,5.8,-,0.00,,Overcast,220,2011-11-13 03:53:00
6:53 PM,69.1,64.0,84,30.08,10.0,SSW,6.9,-,N/A,,Overcast,210,2011-11-13 04:53:00
8:53 PM,69.1,64.0,84,30.09,10.0,WSW,4.6,-,N/A,,Overcast,240,2011-11-13 06:53:00
9:53 PM,68.0,63.0,84,30.09,10.0,SW,5.8,-,N/A,,Clear,230,2011-11-13 07:53:00
10:39 PM,68.0,62.6,83,30.09,10.0,WSW,5.8,-,N/A,,Mostly Cloudy,250,2011-11-13 08:39:00
10:53 PM,68.0,63.0,84,30.09,10.0,SW,4.6,-,N/A,,Scattered Clouds,230,2011-11-13 08:53:00
11:53 PM,66.9,62.1,84,30.08,10.0,WSW,5.8,-,N/A,,Scattered Clouds,240,2011-11-13 09:53:00